Regional Weather Roundup
Issued by NWS Upton, NY

Current Version | Previous Version | Graphics & Text | Print | Product List | Glossary Off
Versions: 1 2 3 4 5 6 7 8 9 10 11 12 13 14 15 16 17 18 19 20 21 22 23 24 25 26 27 28 29 30 31 32 33 34 35 36 37 38 39 40 41 42 43 44 45 46 47 48 49 50
000 ASUS41 KOKX 242106 RWROKX Regional Weather Roundup National Weather Service New York NY 400 PM EST SAT FEB 24 2018 Note: "FAIR" indicates few or no clouds below 12,000 feet with no significant weather and/or obstructions to visibility. NYZ071-072-176-178-NJZ106-104-242200- New York City Metro Area CITY SKY/WX TMP DP RH WIND PRES REMARKS Central Park LGT RAIN 48 42 80 NW5 30.20R Bronx Bot Gard N/A 46 43 87 N3 30.21R Bronx Lehman C N/A 48 43 81 NW6 N/A LaGuardia Arpt RAIN 48 41 76 NW7 30.18R Queens College N/A 48 45 87 NW5 N/A Kennedy Intl RAIN 49 44 83 N7 30.18R Breezy Point N/A 48 N/A N/A N7 N/A Brooklyn Coll N/A 48 43 81 NW5 N/A Staten Island N/A 46 43 87 NE5 N/A Newark/Liberty LGT RAIN 49 43 80 N12 30.17R Teterboro LGT RAIN 49 42 77 NW12G21 30.18R FOG $$ NYZ177-179-078>081-242200- Long Island New York CITY SKY/WX TMP DP RH WIND PRES REMARKS Jones Beach N/A 48 N/A N/A N9 N/A Wantagh N/A 50 45 81 NW6 N/A Hempstead N/A 50 45 81 NW5 30.19R Matinecock Pt N/A 46 N/A N/A NW13 N/A Farmingdale LGT RAIN 50 44 80 NW6 30.16R MacArthur/ISP LGT RAIN 50 44 80 N3 30.15S Stony Brook U N/A 48 45 87 NW2 N/A Shirley LGT RAIN 50 45 83 NW6 30.16S Mt Sinai Harb N/A N/A N/A N/A W1 N/A Westhampton LGT RAIN 51 43 74 N7 30.16S East Hampton LGT RAIN 49 41 75 NW6 30.15F Southold N/A 46 41 81 NW5 N/A Montauk N/A 47 41 80 W7 30.16R $$ NYZ052-065-067-242200- Hudson Valley CITY SKY/WX TMP DP RH WIND PRES REMARKS White Plains LGT RAIN 46 43 89 W8 30.17R FOG Larchmont Harb N/A 46 N/A N/A NW8 N/A Croton On Huds N/A 45 N/A N/A NW1 N/A Somers N/A 45 43 93 NW3 N/A Brewster N/A 45 43 93 N7 N/A Newburgh CLOUDY 45 45 100 VRB5 30.20R Montgomery LGT RAIN 45 42 89 N7 30.17R Otisville N/A 41 41 100 NW3 N/A Warwick N/A 43 43 100 W3 N/A Suffern N/A 43 41 93 NW5 N/A Poughkeepsie LGT RAIN 45 41 86 CALM 30.18R Albany CLOUDY 44 29 55 W9 30.19R $$ NJZ001-105-106-008-010-013-015-019>022-104-242200- New Jersey CITY SKY/WX TMP DP RH WIND PRES REMARKS Newark/Liberty LGT RAIN 49 43 80 N12 30.17R Teterboro LGT RAIN 49 42 77 NW12G21 30.18R FOG Caldwell LGT RAIN 46 42 86 VRB3 30.20R FOG Somerville LGT RAIN 49 45 86 N5 30.16R Linden RAIN 49 42 79 CALM 30.17R Perth Amboy N/A 48 N/A N/A N5 N/A Sussex LGT RAIN 44 41 89 CALM 30.19R Andover N/A 43 41 93 VRB3 30.19R Trenton LGT RAIN 50 46 86 N6 30.16R Millville CLOUDY 51 44 77 NE5 30.14R Atlantic City CLOUDY 52 46 80 NE6 30.14S Wrightstown CLOUDY 49 47 92 NE3 30.11S Toms River CLOUDY 49 48 97 N3 30.14F Belmar CLOUDY 49 47 93 N5 30.15S $$ PAZ047>061-062-071-242200- Eastern Pennsylvania CITY SKY/WX TMP DP RH WIND PRES REMARKS Philadelphia LGT RAIN 50 46 86 CALM 30.17R FOG Allentown LGT RAIN 48 42 80 N6 30.19R Scranton LGT RAIN 43 41 93 CALM 30.18R $$ CTZ002-004>006-009-010-012-RIZ004-006-007-MAZ004-011-015-242200- Southern New England In CT CITY SKY/WX TMP DP RH WIND PRES REMARKS Bradley Intl CLOUDY 45 36 70 W7 30.17R Hartford LGT RAIN 47 40 76 NW5 30.17R Danbury LGT RAIN 46 43 89 N5 30.17S FOG Wtrbury/Oxford LGT RAIN 44 42 93 NW3 30.16R Norwalk Harbor N/A 46 N/A N/A NW10 N/A Bridgeport LGT RAIN 49 43 80 N10 30.16S Meriden LGT RAIN 47 44 90 N5 30.17R New Haven LGT RAIN 49 43 80 NW7 30.16R Chester LGT RAIN 46 43 87 N7 30.16R Groton LGT RAIN 49 41 74 N8 30.16R Willimantic LGT RAIN 47 38 71 MISG 30.17R In RI CITY SKY/WX TMP DP RH WIND PRES REMARKS Providence LGT RAIN 49 43 80 W7 30.14R Block Island LGT RAIN 44 41 89 W12 30.17R Westerly LGT RAIN 48 41 76 W3 30.17R In MA CITY SKY/WX TMP DP RH WIND PRES REMARKS Boston CLOUDY 52 33 48 N8 30.11S Worcester CLOUDY 45 31 58 W7 30.13R Westfield CLOUDY 45 32 60 NW5 30.16R Provincetown LGT RAIN 45 41 86 NE7 30.13S Nantucket CLOUDY 44 42 93 NW5 30.13F $$ ANZ330-335-338-340-345-350-353-355-242200- Coastal Marine Observations STATION/POSITION TIME SKY/WX TEMP WIND PRES VSBY WAVE AIR SEA DIR/SP/G HT/PER (UTC) (F) (DEG/KT/KT) (MB) (MI) (FT/S) NY Harb Entrance 2050 44 39 250/ 4/ 6 1021.0 2/ 9 20 S Fire Island 2050 44 43 260/ 2/ 4 1020.9 2/ 9 23 SSW Montauk P 2050 43 43 270/ 6/ 8 1021.2 3/ 6 15 E Barnegat Li 2030 42 N/A 2/ 9 Hudson Canyon 2050 46 46 350/ 6/ 8 1020.3 3/ 9 Kings Point 2036 48 39 50/ 3/ 3 1022.3 Execution Rocks NOT AVBL Western LI Sound NOT AVBL Central LI Sound 2030 41 300/ 4/ 6 N/A 0 Robbins Reef 2036 48 330/ 4/ 4 1021.9 $$ >>>>>>>>>>>>>>>>>>>>>>>>>>>> KEY <<<<<<<<<<<<<<<<<<<<<<<<<<< > < > SKY/WX - Sky Condition/Present Weather < > TMP - Temperature in Fahrenheit < > DP - Dew Point in Fahrenheit < > RH - Relative Humidity in Percent < > WIND - Direction (from) and Speed in MPH < > PRES - Mean Sea Level Pressure (inches of Hg) < > WCI - Wind Chill Index < > VSB - Visibility in Miles < > HX - Heat Index < > TC - Temperature in Celsius < > VRB - Varibale Wind Direction < > < >>>>>>>>>>>>>>>>>>>>>>>>>>>> KEY <<<<<<<<<<<<<<<<<<<<<<<<<<<

USA.gov is the U.S. government's official web portal to all federal, state and local government web resources and services.